Torna al catalogo

ONEWEB-0216

AttivoComunicazioniPO
NORAD 48801·PAYLOAD·🇬🇧 United Kingdom

Lanciato May 28, 2021 da Vostochny Cosmodrome

Loading…

Prossimi Passaggi (prossime 24 ore)

TLE

AggiornatoSource: CelesTrak SupGP

Epoca: Sep 14, 2026, 19:02 UTC

1 48801C 21045AL  26257.79324491  .00003054  00000+0  81222-2 0  2579
2 48801  87.8992 241.3324 0002109  86.7080 309.5010 13.15545681    14

Traccia ONEWEB-0216 in tempo reale con AllMySat

Download on the App Store